Weather History for EGCN - March, 2013

Change the Weather History Date:

Sunday, March 3, 2013

  Actual Average Record
Temperature  
Mean Temperature 42 °F -  
Max Temperature 50 °F - - ()
Min Temperature 33 °F - - ()
Degree Days  
Heating Degree Days 22    
Moisture  
Dew Point 36 °F    
Average Humidity 78    
Maximum Humidity 93    
Minimum Humidity 62    
Precipitation  
Precipitation 0.00 in - - ()
Sea Level Pressure  
Sea Level Pressure 30.23 in    
Wind  
Wind Speed 3 mph ()    
Max Wind Speed 6 mph    
Max Gust Speed -    
Visibility 6.1 miles    
Events      
T = Trace of Precipitation, MM = Missing Value Source: Averaged Metar Reports

Daily Weather History Graph

Daily Weather History Graph

Search for Another Location

Airport or City:

Trip Planner

Search our weather history database for the weather conditions in past years. The results will help you decide how hot, cold, wet, or windy it might be!

Date:

Astronomy

Mar. 03, 2013 Rise Set
Actual Time 6:46 AM GMT 5:45 PM GMT
Civil Twilight 6:12 AM GMT 6:20 PM GMT
Nautical Twilight 5:31 AM GMT 7:01 PM GMT
Astronomical Twilight 4:50 AM GMT 7:42 PM GMT
Moon 12:01 AM GMT (3/3) 8:54 AM GMT (3/3)
Length of Visible Light 12h 08m
Length of Day
10h 58m
Waning Gibbous, 66% of the Moon is Illuminated
Mar 3
Waning Gibbous
Mar 4
Last Quarter
Mar 11
New
Mar 19
First Quarter
Mar 27
Full

Hourly Weather History & Observations

Time (GMT) Temp. Windchill Dew Point Humidity Pressure Visibility Wind Dir Wind Speed Gust Speed Precip Events Conditions
12:20 AM 37.4 °F 32.8 °F 33.8 °F 87% 30.30 in 6.2 mi WNW 5.8 mph - N/A   Mostly Cloudy
12:50 AM 35.6 °F - 32.0 °F 87% 30.30 in 6.2 mi Variable 2.3 mph - N/A   Mostly Cloudy
1:20 AM 37.4 °F - 33.8 °F 87% 30.30 in 6.2 mi Variable 2.3 mph - N/A   Mostly Cloudy
4:50 AM 37.4 °F 33.8 °F 35.6 °F 93% 30.27 in 6.2 mi South 4.6 mph - N/A   Mostly Cloudy
5:50 AM 37.4 °F - 35.6 °F 93% 30.27 in 6.2 mi South 2.3 mph - N/A   Mostly Cloudy
6:20 AM 39.2 °F 37.0 °F 35.6 °F 87% 30.27 in 6.2 mi South 3.5 mph - N/A   Mostly Cloudy
6:50 AM 37.4 °F - 35.6 °F 93% 30.27 in 6.2 mi Variable 1.2 mph - N/A   Mostly Cloudy
7:20 AM 37.4 °F - 35.6 °F 93% 30.27 in 6.2 mi Variable 1.2 mph - N/A   Mostly Cloudy
7:50 AM 37.4 °F - 35.6 °F 93% 30.27 in 5.6 mi Variable 1.2 mph - N/A   Mostly Cloudy
8:20 AM 41.0 °F - 37.4 °F 87% 30.27 in 5.6 mi SE 2.3 mph - N/A   Mostly Cloudy
8:50 AM 41.0 °F - 37.4 °F 87% 30.27 in 5.6 mi Variable 1.2 mph - N/A   Mostly Cloudy
9:20 AM 41.0 °F - 37.4 °F 87% 30.27 in 5.6 mi SSW 2.3 mph - N/A   Mostly Cloudy
9:50 AM 42.8 °F 41.1 °F 37.4 °F 81% 30.27 in 5.6 mi SSW 3.5 mph - N/A   Overcast
10:20 AM 44.6 °F - 37.4 °F 76% 30.27 in 5.6 mi SW 2.3 mph - N/A   Overcast
10:50 AM 46.4 °F - 37.4 °F 71% 30.27 in 6.2 mi Variable 2.3 mph - N/A   Mostly Cloudy
11:20 AM 46.4 °F 45.2 °F 37.4 °F 71% 30.27 in 6.2 mi Variable 3.5 mph - N/A   Mostly Cloudy
11:50 AM 48.2 °F - 37.4 °F 66% 30.27 in 6.2 mi Variable 2.3 mph - N/A   Mostly Cloudy
12:20 PM 48.2 °F - 37.4 °F 66% 30.27 in 6.2 mi Variable 3.5 mph - N/A   Mostly Cloudy
12:50 PM 48.2 °F - 37.4 °F 66% 30.24 in 6.2 mi Variable 3.5 mph - N/A   Overcast
1:20 PM 48.2 °F - 37.4 °F 66% 30.24 in 6.2 mi SE 4.6 mph - N/A   Mostly Cloudy
1:50 PM 48.2 °F - 37.4 °F 66% 30.24 in 6.2 mi ESE 4.6 mph - N/A   Overcast
2:20 PM 50.0 °F - 37.4 °F 62% 30.24 in 6.2 mi Variable 3.5 mph - N/A   Mostly Cloudy
2:50 PM 50.0 °F - 37.4 °F 62% 30.21 in 6.2 mi ESE 5.8 mph - N/A   Mostly Cloudy
3:20 PM 48.2 °F - 37.4 °F 66% 30.21 in 6.2 mi SE 4.6 mph - N/A   Mostly Cloudy
3:50 PM 48.2 °F - 37.4 °F 66% 30.21 in 6.2 mi SE 5.8 mph - N/A   Mostly Cloudy
4:20 PM 48.2 °F - 37.4 °F 66% 30.21 in 6.2 mi SE 5.8 mph - N/A   Mostly Cloudy
4:50 PM 48.2 °F - 37.4 °F 66% 30.21 in 6.2 mi SE 4.6 mph - N/A   Mostly Cloudy
5:20 PM 46.4 °F 44.3 °F 37.4 °F 71% 30.21 in 6.2 mi ESE 4.6 mph - N/A   Mostly Cloudy
5:50 PM 46.4 °F 44.3 °F 37.4 °F 71% 30.21 in 6.2 mi ESE 4.6 mph - N/A   Mostly Cloudy
6:20 PM 46.4 °F 44.3 °F 37.4 °F 71% 30.21 in 6.2 mi ESE 4.6 mph - N/A   Mostly Cloudy
6:50 PM 46.4 °F 44.3 °F 37.4 °F 71% 30.21 in 6.2 mi SE 4.6 mph - N/A   Mostly Cloudy
7:20 PM 46.4 °F 44.3 °F 37.4 °F 71% 30.18 in 6.2 mi SE 4.6 mph - N/A   Mostly Cloudy
7:50 PM 44.6 °F 41.4 °F 37.4 °F 76% 30.18 in 6.2 mi SSE 5.8 mph - N/A   Mostly Cloudy
8:20 PM 44.6 °F 41.4 °F 37.4 °F 76% 30.18 in 6.2 mi SSE 5.8 mph - N/A   Mostly Cloudy
8:50 PM 44.6 °F 42.2 °F 37.4 °F 76% 30.18 in 6.2 mi SE 4.6 mph - N/A   Mostly Cloudy
9:20 PM 42.8 °F 40.1 °F 35.6 °F 76% 30.18 in 6.2 mi SE 4.6 mph - N/A   Mostly Cloudy
9:50 PM 41.0 °F 38.0 °F 35.6 °F 81% 30.18 in 6.2 mi SE 4.6 mph - N/A   Scattered Clouds
10:20 PM 39.2 °F 35.9 °F 35.6 °F 87% 30.18 in 6.2 mi SE 4.6 mph - N/A   Scattered Clouds
10:50 PM 37.4 °F 34.9 °F 33.8 °F 87% 30.18 in 6.2 mi SE 3.5 mph - N/A   Scattered Clouds
11:20 PM 35.6 °F - 32.0 °F 87% 30.18 in 6.2 mi SE 2.3 mph - N/A   Scattered Clouds
11:50 PM 33.8 °F 29.6 °F 32.0 °F 93% 30.15 in 6.2 mi ESE 4.6 mph - N/A   Scattered Clouds